Hourly Data Report for August 07, 2022

SANDSPIT
BRITISH COLUMBIA
Current Station Operator: NAVCAN

53°15'15.000" N
131°48'50.000" W
6.40 m
1057052
71111
YZP

Download Data

Hourly Data (August 2022)
Hourly Data Report for August 7, 2022
TIME
LST
Temp Definition
°C
Dew Point Definition
°C
Rel Hum Definition
%
Precip. Amount Definition
mm

Wind Dir Definition
10's deg

Wind Spd Definition
km/h
Visibility Definition
km
Stn Press Definition
kPa
Hmdx Definition


Wind Chill Definition


Weather Definition


00:00 18.2 14.7 80 0.0 24 13 16.1 102.07     LegendNANA
01:00 17.0 14.7 86 0.0 25 18 16.1 102.07     LegendNANA
02:00 17.3 14.6 84 0.0 25 24 16.1 102.05     LegendNANA
03:00 17.0 14.5 85 0.0 27 22 16.1 102.08     LegendNANA
04:00 16.7 14.0 84 0.0 26 18 16.1 102.06     LegendNANA
05:00 16.4 13.7 84 0.0 26 21 16.1 102.05     LegendNANA
06:00 16.7 13.8 83 0.0 26 22 16.1 102.05     LegendNANA
07:00 16.9 14.0 83 0.0 27 26 16.1 102.06     LegendNANA
08:00 17.7 14.3 80 0.0 27 22 16.1 102.09     LegendNANA
09:00 18.4 14.4 77 0.0 26 18 16.1 102.12     LegendNANA
10:00 19.4 14.3 72 0.0 30 17 16.1 102.13     LegendNANA
11:00 19.4 13.3 67 0.0 29 18 16.1 102.16     LegendNANA
12:00 18.9 14.2 74 0.0 1 21 16.1 102.20     LegendNANA
13:00 17.9 14.6 81 0.0 5 24 16.1 102.25     LegendNANA
14:00 16.6 13.3 81 0.0 4 17 16.1 102.31     LegendNANA
15:00 16.7 12.6 77 0.0 5 17 16.1 102.29     LegendNANA
16:00 16.4 12.3 76 0.0 5 15 16.1 102.29     LegendNANA
17:00 16.3 12.1 76 0.0 6 17 16.1 102.27     LegendNANA
18:00 16.5 12.2 75 0.0 5 11 16.1 102.28     LegendNANA
19:00 16.1 11.3 73 0.0 6 4 16.1 102.25     LegendNANA
20:00 16.1 11.5 74 0.0 27 8 16.1 102.26     LegendNANA
21:00 15.8 11.0 73 0.0 30 21 16.1 102.30     LegendNANA
22:00 15.4 10.6 73 0.0 31 24 16.1 102.32     LegendNANA
23:00 15.2 10.6 74 0.0 34 32 16.1 102.34     LegendNANA

Notes on Data Quality.

Legend

  • E = Estimated
  • M = Missing
  • NA = Not Available*
  • [empty] = Indicates an unobserved value
Date modified: